Location: T. Spence Memorial Observatory
(32.7356°N, 82.2098°W)
Time: 23:41:29
(UTC-04:00)

Daily predictions for brighter satellites

Satellite Brightness Start Highest point End
(mag) Time Altitude Azimuth Time Altitude Azimuth Time Altitude Azimuth
Cosmos 1818 3.6 19:38:03 10° NNW 19:43:32 87° ENE 19:48:56 10° SSE
Cosmos 1437 3.9 19:44:30 10° NNE 19:47:11 23° ENE 19:49:51 10° SE
APEX 4.5 19:41:59 10° NNW 19:48:48 85° WSW 19:54:04 10° SSE
Meteor 2-5 Rocket 3.7 19:43:41 10° N 19:49:17 67° E 19:54:47 10° SSE
Cosmos 2219 Rocket 3.7 19:45:26 10° SW 19:50:42 41° WNW 19:56:00 10° N
ALOS 4.0 19:49:06 10° E 19:51:30 14° ENE 19:53:53 10° NE
Okean 3 Rocket 4.2 19:48:32 10° NNE 19:52:45 37° E 19:56:56 10° SSE
Aureole 2 Rocket 3.4 19:49:13 10° S 19:53:17 40° ESE 19:57:24 10° NNE
SJ-6B 3.0 19:50:34 10° SSE 19:54:19 48° ENE 19:58:11 10° N
FREGAT/IRIS 3.4 19:51:54 10° SE 19:54:41 31° ENE 19:57:28 10° N
Cosmos 1441 Rocket 3.1 19:50:59 10° N 19:54:41 62° E 19:58:22 10° SSE
Helios 1B rocket 3.0 19:52:56 10° NNE 19:56:43 35° E 20:00:29 10° SSE
Cosmos 2278 Rocket 2.2 19:51:25 10° NNW 19:57:01 62° ENE 20:02:35 10° SSE
Meteor 1-24 Rocket 4.0 19:52:34 10° N 19:57:55 43° ENE 20:03:04 10° SSE
Meteor 1-28 Rocket 3.1 19:59:34 10° NNE 20:03:19 85° ESE 20:07:01 10° S
METEOR-M 4.5 19:58:39 10° SE 20:03:41 44° ENE 20:08:45 10° N
Cosmos 1707 2.6 20:00:01 10° N 20:03:51 80° E 20:07:42 10° S
Cosmos 1624 Rocket 4.3 20:00:40 10° N 20:05:37 43° ENE 20:10:32 10° SE
Cosmos 1378 3.8 20:05:10 10° NNE 20:08:35 33° E 20:11:57 10° SE
CZ-4C R/B 3.7 20:08:50 10° WSW 20:13:39 36° NW 20:18:59 10° NNE
OAO 3 Rocket 3.1 20:10:13 10° WSW 20:14:59 87° SSE 20:18:46 17° ENE
HJ-1C 3.7 20:12:33 10° SSE 20:15:45 43° ENE 20:18:57 10° N
Meteor 1-29 3.1 20:14:28 10° NNE 20:17:53 52° E 20:21:18 10° S
Cosmos 2346 Rocket 4.5 20:13:26 10° N 20:19:31 87° W 20:25:33 10° S
ATLAS CENTAUR R/B 1.7 20:16:56 10° NNW 20:20:54 43° ENE 20:23:05 21° ESE
Cosmos 2333 Rocket 4.3 20:16:47 10° WSW 20:21:48 30° WNW 20:26:50 10° N
Yuri Rocket 4.4 20:18:52 10° WSW 20:22:29 27° SSW 20:25:22 14° SE
USA 215 4.1 20:17:35 10° NNE 20:23:50 50° NW 20:30:05 10° WSW
GPS 2-05 Rocket1 3.5 20:20:39 10° W 20:23:55 45° SSW 20:25:56 20° SE
Atlas Centaur 2 3.1 20:17:46 10° W 20:26:18 72° S 20:31:49 21° ESE
Cosmos 2034 Rocket 4.0 20:27:56 10° S 20:34:02 62° E 20:40:14 10° NNE
Cosmos 1452 Rocket 4.3 20:30:09 10° N 20:34:44 30° ENE 20:36:02 27° E
Helios 1A 2.8 20:30:49 10° SSE 20:34:58 73° ENE 20:39:09 10° N
Cosmos 1464 Rocket 4.0 20:31:38 10° S 20:37:55 88° W 20:44:11 10° N
Meteor 2-12 Rocket 4.5 20:33:36 10° S 20:39:36 57° E 20:45:37 10° NNE
OAO 1 Rocket 4.4 20:38:52 10° WSW 20:44:15 86° SSE 20:46:47 32° ENE
Cosmos 1766 4.5 20:40:40 10° SSW 20:44:25 44° W 20:48:14 10° N
SEDSat Delta rocket 4.0 20:38:08 10° WSW 20:44:54 73° S 20:48:22 31° E
SL-8 R/B 4.1 20:43:27 10° SSW 20:47:53 40° SE 20:48:21 39° ESE
SeaSat 1 2.3 20:43:09 10° NNE 20:48:05 66° ESE 20:52:58 10° SSW
GPS 2-04 Rocket1 3.9 20:46:30 10° SSW 20:48:47 25° S 20:48:47 25° S
Cosmos 1766 Rocket 3.4 20:47:26 10° N 20:51:49 72° E 20:54:05 27° SSE
In-Cosmos 22 4.2 20:46:40 10° N 20:52:27 70° E 20:57:32 13° SSE
ASTRO E2 2.6 20:49:45 10° WSW 20:53:46 70° S 20:54:17 61° SE
NOSS 3-2 (A) 4.2 20:48:15 10° SW 20:54:05 53° NW 21:00:25 10° NNE
Cosmos 1953 2.3 20:52:16 10° S 20:56:16 80° W 21:00:15 10° N
CZ-4B DEB 3.2 20:57:57 53° N 20:57:57 53° N 21:00:33 10° N
CZ-2D R/B 3.3 21:01:16 61° NE 21:01:16 61° NE 21:04:47 10° N
Cosmos 1269 Rocket 3.9 21:00:08 10° S 21:05:19 61° ESE 21:10:31 10° NNE
ATLAS 5 CENTAUR R/B 2.4 21:04:17 10° SW 21:08:54 56° WNW 21:13:51 10° NNE
SL-16 R/B 3.9 21:05:30 10° SW 21:10:33 32° WNW 21:15:38 10° N
Cosmos 724 4.3 21:04:42 10° SSW 21:10:34 84° WNW 21:16:38 10° NNE
Cosmos-2242 3.8 21:13:13 10° SSW 21:17:25 50° W 21:21:41 10° N
Resurs 01 Rocket 3.6 21:16:15 10° SSW 21:20:04 28° W 21:23:55 10° NW
H-2A R/B 3.5 21:23:12 52° NW 21:23:12 52° NW 21:26:25 10° NNW
ALOS 3.1 21:26:20 27° SSW 21:28:29 47° W 21:32:59 10° NNW
NOSS 3-3 (A) 4.4 21:21:21 10° NNW 21:29:00 85° ENE 21:31:19 51° SE
NOSS 3-3 (C) 4.4 21:21:27 10° NNW 21:29:06 85° ENE 21:31:23 52° SE
CENTAUR R/B 4.0 21:31:12 10° SSW 21:32:48 20° SSW 21:32:48 20° SSW
ASTEX 1 4.5 21:36:11 10° N 21:40:49 43° W 21:45:24 10° SSW
ATLAS CENTAUR R/B 4.3 21:58:31 10° W 21:59:22 11° WSW 21:59:27 11° WSW
Cosmos 1092 Rocket 4.3 21:54:19 10° NNW 22:00:04 64° WNW 22:00:04 64° WNW
Cosmos 2369 Rocket 4.0 21:56:19 10° N 21:58:21 21° N 21:58:21 21° N
Atlas Centaur 2 3.7 22:08:12 10° W 22:14:28 39° SW 22:14:28 39° SW
